SL-8 DEB, 21402

Orbit data source: Space-Track

SL-8 DEB, 21402 is space debris in LEO originally from a launch on Tue, 12 Feb 1991 UTC launched from the Plesetsk Missile And Space Complex (PKMTR). Debris objects in space refer to the collection of defunct objects orbiting the Earth. Examples of debris include non-operational satellites, rocket bodies, and fragments generated from explosions, collisions, or faulty payload assembly.

Loading next visibility...
Identifier
21402, 1991-009BR
Orbit
LEO
Country
Flag of CISCIS
Related business
Manufacturer
Unknown
Mission
Spacecraft
Bus & Motor
Unknown
Mass
Unknown
Launch date (UTC)
1991-02-12 (35 years ago)
Launch vehicle
Unknown
Launch site
Plesetsk Missile And Space Complex (PKMTR)
Object type
Payload
Rocket body
Debris
Shape & HBR
Unknown shape, 0.1 m
Radar Cross Section
Small (<0.1 m²)

Expand to show TLE details & history
Last TLE update: 20 hours ago

TLE from 20 hours ago
0 SL-8 DEB
1 21402U 91009BR  26070.84437846  .00000076  00000-0  85926-3 0  9993
2 21402  74.0313 356.6557 0137113 154.7462 280.8273 12.18410319556883
Epoch: 2026-03-11T20:15Z
TLE epoch observation values (Epoch: 2026-03-11T20:15:54.298Z)
Latitude
67.64586°
Longitude
-72.99721°
Altitude
1,591.722 km
Speed
7.088 km/s
True Right ascension
02h 41m 55s
True Declination
67° 32' 14"
Sunlit
Object was in daylight at epoch
Visualization orbit readout
Latitude
Unknown
Longitude
Unknown
Altitude
Unknown
Speed
Unknown
Apparent Right ascension
Unknown
Apparent Declination
Unknown
Sunlit
N/A
Visualization observer readout
Local Sidereal Time
20:30:23
Azimuth
Unknown
Elevation
Unknown
Doppler factor
Unknown
Orbital elements
Apogee altitude
1,706.698 km
Perigee altitude
1,487.99 km
Semi-major axis
7,975.481 km
Eccentricity
0.01371
Inclination
74.0313°
RAAN
356.6557°
Arg. of periapsis
154.7462°
True anomaly
279.27928°
Mean anomaly
280.8273°
Eccentric anomaly
280.05376°
Mean motion
3.04725 °/min
Orbital period
118.14 mins
BSTAR
0.00085926
Loading maneuver chart data...
Computing Atmospheric mass density...
Loading historical data...
Loading historical data...
Loading historical data...
Loading historical data...
Loading historical data...
Loading historical data...
Loading historical data...

Documentation

Showing up to 5 results
|